This demonstration page uses our WeatherBlox Daily Observations layout. Learn more.

Left ArrowRight Arrow

38.20091, -84.87328

Hourly Observations for July 6, 2019

Temp ( °F °C ) Dew Point ( °F °C ) Humidity (%) Winds ( mph kmh ) Pressure ( in mb ) Visibility ( mi km ) Precip ( " mm )
12:53 am 00:53 Clear 76 24.4 71 21.7 85 85 S 3 6 30.00 1016 10 16 0.00 0.00
1:53 am 01:53 Clear 76 24.4 71 21.7 85 85 Calm 30.00 1016 10 16 0.00 0.00
2:53 am 02:53 Clear 75 23.9 71 21.7 88 88 SE 5 7 29.99 1016 10 16 0.00 0.00
3:53 am 03:53 Clear 74 23.3 71 21.7 91 91 WSW 3 6 29.98 1015 10 16 0.00 0.00
4:53 am 04:53 Clear 74 23.3 71 21.7 91 91 Calm 29.99 1016 10 16 0.00 0.00
5:53 am 05:53 Mostly Clear 73 22.8 71 21.7 94 94 SW 3 6 30.00 1016 9 14 0.00 0.00
6:53 am 06:53 Sunny 74 23.3 71 21.7 91 91 Calm 30.01 1016 10 16 0.00 0.00
7:53 am 07:53 Sunny 76 24.4 72 22.2 88 88 SW 6 9 30.01 1016 10 16 0.00 0.00
8:38 am 08:38 Partly Cloudy 77 25 73 22.8 88 88 SW 6 9 30.02 1016 10 16 0.00 0.00
8:48 am 08:48 Mostly Cloudy 77 25 73 23 89 89 SSW 6 9 30.02 1016 10 16 0.00 0.00
8:53 am 08:53 Mostly Cloudy 78 25.6 73 22.8 85 85 SSW 8 13 30.02 1017 10 16 0.00 0.00
9:20 am 09:20 Mostly Sunny 79 26.1 72 22.2 79 79 VRB 5 7 30.02 1017 10 16 0.00 0.00
9:53 am 09:53 Sunny 80 26.7 72 22.2 76 76 SW 7 11 30.03 1017 10 16 0.00 0.00
10:53 am 10:53 Mostly Sunny 83 28.3 72 22.2 70 70 WSW 7 11 30.02 1017 10 16 0.00 0.00
11:53 am 11:53 Mostly Sunny 85 29.4 72 22.2 65 65 SW 8 13 30.02 1017 10 16 0.00 0.00
12:53 pm 12:53 Mostly Cloudy 88 31.1 73 22.8 61 61 WNW 9 15 30.01 1016 10 16 0.00 0.00
1:09 pm 13:09 Partly Cloudy 87 30.6 72 22.2 61 61 VRB 5 7 29.98 1015 10 16 0.00 0.00
1:53 pm 13:53 Mostly Sunny 88 31.1 72 22.2 59 59 W 7 11 29.98 1015 10 16 0.00 0.00
2:53 pm 14:53 Mostly Cloudy 89 31.7 72 22.2 57 57 VRB 7 11 29.96 1015 10 16 0.00 0.00
3:53 pm 15:53 Mostly Sunny 90 32.2 72 22.2 56 56 W 9 15 29.95 1014 10 16 0.00 0.00
4:53 pm 16:53 Mostly Sunny 90 32.2 72 22.2 56 56 VRB 5 7 29.92 1013 10 16 0.00 0.00
5:53 pm 17:53 Sunny 90 32.2 73 22.8 58 58 VRB 6 9 29.92 1013 10 16 0.00 0.00
6:53 pm 18:53 Sunny 88 31.1 72 22.2 59 59 W 6 9 29.91 1013 10 16 0.00 0.00
7:53 pm 19:53 Mostly Sunny 86 30 72 22.2 63 63 WNW 6 9 29.92 1013 10 16 0.00 0.00
8:53 pm 20:53 Sunny 83 28.3 73 22.8 72 72 Calm 29.92 1013 10 16 0.00 0.00
9:53 pm 21:53 Mostly Clear 80 26.7 73 22.8 79 79 Calm 29.93 1014 10 16 0.00 0.00
10:53 pm 22:53 Mostly Clear 78 25.6 73 22.8 85 85 SW 5 7 29.93 1014 10 16 0.00 0.00
11:53 pm 23:53 Mostly Cloudy 79 26.1 73 22.8 82 82 WSW 3 6 29.94 1014 10 16 0.00 0.00

Powered by AerisWeather